AXX256 KLIT-KMIA

Flight info

Callsign AXX256
Flight time 1h 52m
Altitude 39000
Route MICKE SQS MERDN DEFUN FROGZ5
Aircraft A346/H-SDE2E3FGHIJ3J4J5M1RWXY/LB1D1

Departure

Time 2026-04-22 16:22
Airport Bill & Hillary Clinton National Airport/Adams Field (KLIT)

Arrival

Time 2026-04-22 18:14
Airport Miami International Airport (KMIA)
Time Latitude Longitude Altitude Speed Heading
2026-04-22 15:57 34.73220 -92.21819 272 ft 0 kts 89°
2026-04-22 16:14 34.73220 -92.21825 272 ft 1 kts 89°
2026-04-22 16:15 34.73220 -92.21836 272 ft 2 kts 83°
2026-04-22 16:15 34.73214 -92.21852 272 ft 2 kts 46°
2026-04-22 16:15 34.73202 -92.21863 272 ft 2 kts 16°
2026-04-22 16:15 34.73187 -92.21864 272 ft 2 kts 346°
2026-04-22 16:16 34.73174 -92.21857 272 ft 2 kts 317°
2026-04-22 16:16 34.73166 -92.21845 272 ft 0 kts 294°
2026-04-22 16:16 34.73164 -92.21840 272 ft 0 kts 292°
2026-04-22 16:18 34.73169 -92.21853 272 ft 6 kts 292°
2026-04-22 16:18 34.73194 -92.21928 272 ft 11 kts 293°
2026-04-22 16:19 34.73230 -92.22032 272 ft 15 kts 292°
2026-04-22 16:19 34.73271 -92.22154 272 ft 14 kts 291°
2026-04-22 16:19 34.73348 -92.22196 272 ft 15 kts 33°
2026-04-22 16:19 34.73433 -92.22104 272 ft 17 kts 48°
2026-04-22 16:20 34.73521 -92.21989 272 ft 19 kts 46°
2026-04-22 16:20 34.73619 -92.21864 271 ft 21 kts 46°
2026-04-22 16:20 34.73711 -92.21761 271 ft 15 kts 19°
2026-04-22 16:20 34.73787 -92.21802 271 ft 7 kts 284°
2026-04-22 16:21 34.73758 -92.21877 271 ft 8 kts 230°
2026-04-22 16:21 34.73745 -92.21894 271 ft 13 kts 229°
2026-04-22 16:21 34.73471 -92.22248 272 ft 98 kts 226°
2026-04-22 16:21 34.72832 -92.23062 271 ft 164 kts 226°
2026-04-22 16:22 34.71160 -92.25209 1508 ft 180 kts 226°
2026-04-22 16:22 34.70298 -92.26286 2252 ft 184 kts 219°
2026-04-22 16:22 34.69084 -92.26839 2782 ft 200 kts 181°
2026-04-22 16:23 34.66677 -92.24899 3875 ft 241 kts 124°
2026-04-22 16:23 34.65796 -92.23084 4539 ft 260 kts 122°
2026-04-22 16:23 34.64767 -92.21214 5405 ft 270 kts 128°
2026-04-22 16:24 34.63658 -92.19394 6401 ft 273 kts 129°
2026-04-22 16:24 34.61385 -92.15684 8220 ft 280 kts 129°
2026-04-22 16:24 34.60232 -92.13793 9058 ft 284 kts 129°
2026-04-22 16:25 34.59065 -92.11858 9890 ft 288 kts 129°
2026-04-22 16:25 34.56654 -92.07842 11190 ft 309 kts 129°
2026-04-22 16:25 34.55359 -92.05688 11617 ft 327 kts 128°
2026-04-22 16:26 34.53975 -92.03386 12044 ft 347 kts 128°
2026-04-22 16:26 34.52523 -92.00971 12474 ft 365 kts 127°
2026-04-22 16:26 34.51011 -91.98452 13126 ft 377 kts 127°
2026-04-22 16:26 34.49447 -91.95843 13961 ft 383 kts 126°
2026-04-22 16:27 34.47879 -91.93224 14766 ft 388 kts 126°
2026-04-22 16:27 34.46308 -91.90598 15526 ft 393 kts 126°
2026-04-22 16:27 34.44698 -91.87912 16263 ft 398 kts 126°
2026-04-22 16:27 34.43061 -91.85184 16972 ft 403 kts 126°
2026-04-22 16:28 34.41412 -91.82439 17675 ft 408 kts 126°
2026-04-22 16:28 34.39733 -91.79649 18375 ft 413 kts 126°
2026-04-22 16:28 34.38041 -91.76837 19060 ft 417 kts 126°
2026-04-22 16:28 34.36317 -91.73978 19726 ft 421 kts 126°
2026-04-22 16:29 34.34587 -91.71111 20375 ft 425 kts 126°
2026-04-22 16:29 34.32837 -91.68213 21006 ft 430 kts 126°
2026-04-22 16:29 34.31070 -91.65286 21625 ft 435 kts 126°
2026-04-22 16:29 34.29290 -91.62337 22241 ft 439 kts 125°
2026-04-22 16:30 34.28083 -91.60342 22650 ft 442 kts 125°
2026-04-22 16:30 34.25670 -91.56353 23446 ft 447 kts 125°
2026-04-22 16:30 34.23817 -91.53296 24040 ft 451 kts 125°
2026-04-22 16:30 34.21972 -91.50254 24639 ft 455 kts 125°
2026-04-22 16:31 34.20088 -91.47153 25241 ft 459 kts 125°
2026-04-22 16:31 34.18187 -91.44024 25845 ft 463 kts 125°
2026-04-22 16:31 34.16296 -91.40918 26432 ft 466 kts 124°
2026-04-22 16:31 34.14365 -91.37746 27017 ft 470 kts 124°
2026-04-22 16:32 34.12429 -91.34570 27598 ft 473 kts 125°
2026-04-22 16:32 34.10471 -91.31359 28172 ft 476 kts 124°
2026-04-22 16:32 34.08514 -91.28154 28749 ft 479 kts 124°
2026-04-22 16:32 34.06541 -91.24926 29338 ft 482 kts 124°
2026-04-22 16:33 34.04542 -91.21657 29936 ft 484 kts 124°
2026-04-22 16:33 34.02541 -91.18388 30691 ft 482 kts 124°
2026-04-22 16:33 34.00581 -91.15191 31482 ft 477 kts 124°
2026-04-22 16:33 33.98616 -91.11987 32246 ft 474 kts 123°
2026-04-22 16:34 33.96679 -91.08826 32991 ft 472 kts 123°
2026-04-22 16:34 33.94734 -91.05655 33716 ft 470 kts 123°
2026-04-22 16:34 33.92798 -91.02501 34430 ft 468 kts 124°
2026-04-22 16:34 33.90892 -90.99400 35115 ft 465 kts 124°
2026-04-22 16:35 33.88951 -90.96248 35757 ft 463 kts 123°
2026-04-22 16:35 33.87050 -90.93164 36332 ft 462 kts 123°
2026-04-22 16:35 33.85135 -90.90057 36858 ft 461 kts 123°
2026-04-22 16:35 33.83223 -90.86958 37335 ft 461 kts 123°
2026-04-22 16:36 33.81316 -90.83869 37726 ft 462 kts 123°
2026-04-22 16:36 33.79418 -90.80798 38051 ft 464 kts 123°
2026-04-22 16:36 33.77488 -90.77679 38346 ft 467 kts 123°
2026-04-22 16:36 33.75545 -90.74541 38644 ft 470 kts 124°
2026-04-22 16:37 33.73587 -90.71380 38897 ft 472 kts 124°
2026-04-22 16:37 33.71619 -90.68209 39152 ft 474 kts 124°
2026-04-22 16:37 33.69671 -90.65072 39272 ft 476 kts 124°
2026-04-22 16:37 33.67683 -90.61873 39307 ft 477 kts 124°
2026-04-22 16:38 33.63726 -90.55515 39299 ft 477 kts 124°
2026-04-22 16:38 33.59769 -90.49165 39284 ft 477 kts 124°
2026-04-22 16:39 33.55791 -90.42797 39229 ft 477 kts 124°
2026-04-22 16:39 33.51827 -90.36456 39219 ft 477 kts 123°
2026-04-22 16:40 33.47834 -90.30081 39230 ft 477 kts 124°
2026-04-22 16:41 33.41455 -90.20949 39243 ft 479 kts 128°
2026-04-22 16:41 33.37098 -90.14941 39251 ft 479 kts 128°
2026-04-22 16:42 33.32752 -90.08953 39253 ft 479 kts 128°
2026-04-22 16:42 33.28392 -90.02951 39254 ft 479 kts 128°
2026-04-22 16:43 33.24015 -89.96934 39254 ft 479 kts 128°
2026-04-22 16:43 33.19651 -89.90945 39255 ft 479 kts 128°
2026-04-22 16:44 33.15261 -89.84930 39251 ft 480 kts 128°
2026-04-22 16:44 33.10891 -89.78951 39248 ft 481 kts 129°
2026-04-22 16:45 33.06487 -89.72936 39248 ft 482 kts 129°
2026-04-22 16:45 33.02084 -89.66933 39249 ft 482 kts 129°
2026-04-22 16:46 32.97670 -89.60925 39253 ft 483 kts 129°
2026-04-22 16:46 32.93255 -89.54926 39260 ft 483 kts 129°
2026-04-22 16:47 32.88808 -89.48894 39267 ft 483 kts 129°
2026-04-22 16:47 32.85107 -89.43881 39271 ft 484 kts 129°
2026-04-22 16:48 32.79938 -89.36891 39273 ft 484 kts 129°
2026-04-22 16:48 32.75481 -89.30875 39274 ft 485 kts 130°
2026-04-22 16:49 32.71011 -89.24850 39274 ft 485 kts 130°
2026-04-22 16:49 32.66570 -89.18874 39268 ft 485 kts 130°
2026-04-22 16:50 32.62105 -89.12875 39261 ft 485 kts 130°
2026-04-22 16:50 32.57628 -89.06868 39258 ft 485 kts 130°
2026-04-22 16:51 32.53155 -89.00880 39258 ft 485 kts 130°
2026-04-22 16:51 32.48686 -88.94904 39264 ft 486 kts 130°
2026-04-22 16:52 32.44190 -88.88899 39270 ft 486 kts 130°
2026-04-22 16:52 32.40444 -88.83905 39272 ft 487 kts 130°
2026-04-22 16:53 32.35608 -88.76550 39274 ft 486 kts 123°
2026-04-22 16:53 32.31840 -88.69903 39273 ft 487 kts 122°
2026-04-22 16:54 32.28096 -88.63280 39271 ft 487 kts 123°
2026-04-22 16:54 32.24313 -88.56612 39271 ft 488 kts 123°
2026-04-22 16:55 32.20553 -88.50002 39272 ft 488 kts 123°
2026-04-22 16:55 32.16763 -88.43355 39271 ft 489 kts 123°
2026-04-22 16:56 32.12947 -88.36673 39269 ft 490 kts 123°
2026-04-22 16:56 32.09126 -88.29991 39267 ft 491 kts 124°
2026-04-22 16:57 32.05320 -88.23352 39272 ft 491 kts 124°
2026-04-22 16:57 32.01507 -88.16710 39276 ft 491 kts 124°
2026-04-22 16:58 31.98315 -88.11157 39280 ft 492 kts 124°
2026-04-22 16:58 31.93839 -88.03389 39284 ft 492 kts 124°
2026-04-22 16:59 31.90011 -87.96756 39288 ft 492 kts 124°
2026-04-22 16:59 31.86144 -87.90067 39290 ft 492 kts 124°
2026-04-22 17:00 31.82294 -87.83421 39293 ft 492 kts 124°
2026-04-22 17:00 31.76517 -87.73467 39302 ft 493 kts 124°
2026-04-22 17:01 31.72669 -87.66854 39303 ft 493 kts 124°
2026-04-22 17:01 31.68778 -87.60176 39301 ft 494 kts 124°
2026-04-22 17:02 31.64918 -87.53562 39298 ft 494 kts 124°
2026-04-22 17:02 31.61025 -87.46903 39296 ft 495 kts 124°
2026-04-22 17:03 31.57149 -87.40285 39297 ft 496 kts 124°
2026-04-22 17:03 31.53218 -87.33584 39298 ft 496 kts 125°
2026-04-22 17:04 31.49321 -87.26952 39302 ft 497 kts 126°
2026-04-22 17:04 31.45395 -87.20285 39305 ft 499 kts 126°
2026-04-22 17:05 31.41463 -87.13617 39307 ft 499 kts 126°
2026-04-22 17:05 31.37500 -87.06907 39309 ft 500 kts 126°
2026-04-22 17:06 31.33557 -87.00245 39310 ft 501 kts 126°
2026-04-22 17:06 31.29591 -86.93553 39310 ft 502 kts 126°
2026-04-22 17:07 31.25604 -86.86840 39309 ft 503 kts 126°
2026-04-22 17:07 31.21633 -86.80163 39308 ft 503 kts 126°
2026-04-22 17:08 31.17617 -86.73423 39306 ft 503 kts 126°
2026-04-22 17:08 31.13620 -86.66726 39306 ft 503 kts 126°
2026-04-22 17:09 31.09563 -86.60078 39298 ft 502 kts 133°
2026-04-22 17:09 31.04557 -86.54511 39307 ft 499 kts 141°
2026-04-22 17:10 30.99349 -86.49177 39308 ft 500 kts 141°
2026-04-22 17:10 30.94163 -86.43810 39310 ft 500 kts 141°
2026-04-22 17:11 30.88980 -86.38404 39312 ft 500 kts 141°
2026-04-22 17:11 30.83775 -86.32964 39314 ft 500 kts 141°
2026-04-22 17:12 30.78603 -86.27565 39317 ft 501 kts 142°
2026-04-22 17:12 30.73426 -86.22168 39318 ft 501 kts 142°
2026-04-22 17:13 30.68247 -86.16776 39314 ft 502 kts 142°
2026-04-22 17:13 30.63061 -86.11385 39307 ft 502 kts 142°
2026-04-22 17:14 30.57856 -86.05982 39303 ft 502 kts 142°
2026-04-22 17:14 30.52663 -86.00600 39300 ft 503 kts 142°
2026-04-22 17:15 30.47433 -85.95188 39299 ft 503 kts 142°
2026-04-22 17:15 30.42232 -85.89813 39299 ft 503 kts 143°
2026-04-22 17:16 30.37012 -85.84428 39302 ft 504 kts 143°
2026-04-22 17:16 30.31772 -85.79028 39300 ft 504 kts 143°
2026-04-22 17:17 30.26518 -85.73625 39294 ft 504 kts 143°
2026-04-22 17:17 30.21301 -85.68268 39292 ft 505 kts 143°
2026-04-22 17:18 30.16040 -85.62872 39291 ft 505 kts 143°
2026-04-22 17:18 30.10807 -85.57513 39291 ft 505 kts 143°
2026-04-22 17:19 30.00279 -85.46756 39286 ft 505 kts 143°
2026-04-22 17:20 29.89790 -85.36070 39284 ft 505 kts 143°
2026-04-22 17:21 29.81882 -85.28030 39283 ft 505 kts 144°
2026-04-22 17:22 29.73984 -85.20023 39290 ft 506 kts 144°
2026-04-22 17:23 29.66073 -85.12022 39295 ft 506 kts 144°
2026-04-22 17:23 29.58129 -85.04002 39300 ft 507 kts 144°
2026-04-22 17:24 29.52821 -84.98653 39301 ft 508 kts 144°
2026-04-22 17:24 29.47484 -84.93282 39301 ft 508 kts 144°
2026-04-22 17:25 29.42177 -84.87949 39301 ft 508 kts 144°
2026-04-22 17:25 29.36873 -84.82626 39300 ft 509 kts 144°
2026-04-22 17:26 29.31559 -84.77303 39300 ft 509 kts 144°
2026-04-22 17:26 29.26216 -84.71958 39299 ft 509 kts 144°
2026-04-22 17:27 29.20903 -84.66650 39297 ft 509 kts 144°
2026-04-22 17:27 29.15580 -84.61339 39296 ft 509 kts 144°
2026-04-22 17:28 29.10238 -84.56016 39294 ft 509 kts 144°
2026-04-22 17:28 29.04900 -84.50706 39293 ft 510 kts 144°
2026-04-22 17:29 28.99546 -84.45389 39291 ft 510 kts 144°
2026-04-22 17:29 28.94202 -84.40088 39289 ft 510 kts 144°
2026-04-22 17:30 28.88830 -84.34766 39287 ft 510 kts 145°
2026-04-22 17:30 28.83474 -84.29467 39285 ft 510 kts 145°
2026-04-22 17:31 28.78126 -84.24186 39284 ft 510 kts 145°
2026-04-22 17:31 28.72764 -84.18900 39281 ft 510 kts 145°
2026-04-22 17:32 28.67392 -84.13605 39279 ft 511 kts 145°
2026-04-22 17:32 28.62015 -84.08315 39277 ft 511 kts 145°
2026-04-22 17:33 28.56636 -84.03032 39275 ft 512 kts 145°
2026-04-22 17:33 28.51274 -83.97773 39277 ft 513 kts 145°
2026-04-22 17:34 28.45841 -83.92451 39281 ft 513 kts 145°
2026-04-22 17:34 28.40452 -83.87180 39278 ft 513 kts 145°
2026-04-22 17:35 28.35026 -83.81879 39272 ft 514 kts 145°
2026-04-22 17:35 28.29607 -83.76595 39270 ft 514 kts 146°
2026-04-22 17:36 28.24195 -83.71326 39270 ft 514 kts 145°
2026-04-22 17:36 28.18793 -83.66071 39270 ft 514 kts 146°
2026-04-22 17:37 28.13365 -83.60802 39271 ft 514 kts 145°
2026-04-22 17:37 28.07906 -83.55506 39270 ft 514 kts 145°
2026-04-22 17:38 28.02490 -83.50258 39271 ft 514 kts 145°
2026-04-22 17:38 27.97076 -83.45020 39265 ft 514 kts 145°
2026-04-22 17:39 27.91651 -83.39779 39256 ft 515 kts 146°
2026-04-22 17:40 27.83446 -83.31866 39255 ft 515 kts 146°
2026-04-22 17:40 27.77992 -83.26616 39256 ft 515 kts 146°
2026-04-22 17:41 27.72546 -83.21381 39254 ft 515 kts 146°
2026-04-22 17:41 27.67107 -83.16161 39253 ft 516 kts 146°
2026-04-22 17:42 27.61623 -83.10903 39253 ft 516 kts 146°
2026-04-22 17:42 27.57064 -83.06538 39253 ft 516 kts 146°
2026-04-22 17:43 27.50676 -83.00428 39251 ft 516 kts 146°
2026-04-22 17:43 27.45219 -82.95217 39246 ft 516 kts 146°
2026-04-22 17:44 27.39722 -82.89976 39240 ft 516 kts 146°
2026-04-22 17:44 27.34258 -82.84771 39237 ft 517 kts 146°
2026-04-22 17:45 27.28748 -82.79530 39235 ft 517 kts 146°
2026-04-22 17:45 27.23234 -82.74295 39233 ft 517 kts 146°
2026-04-22 17:46 27.17763 -82.69108 39232 ft 517 kts 146°
2026-04-22 17:46 27.12237 -82.63873 39231 ft 518 kts 146°
2026-04-22 17:46 27.09496 -82.61279 39022 ft 519 kts 146°
2026-04-22 17:47 27.06726 -82.58659 38590 ft 521 kts 146°
2026-04-22 17:47 27.03952 -82.56037 38036 ft 524 kts 146°
2026-04-22 17:47 27.01169 -82.53408 37448 ft 527 kts 146°
2026-04-22 17:47 26.98364 -82.50757 36825 ft 528 kts 146°
2026-04-22 17:48 26.96510 -82.49005 36403 ft 527 kts 146°
2026-04-22 17:48 26.92759 -82.45466 35542 ft 526 kts 146°
2026-04-22 17:48 26.89969 -82.42828 34862 ft 526 kts 145°
2026-04-22 17:48 26.87183 -82.40164 34153 ft 527 kts 145°
2026-04-22 17:49 26.84400 -82.37491 33432 ft 528 kts 144°
2026-04-22 17:49 26.81621 -82.34819 32711 ft 528 kts 145°
2026-04-22 17:49 26.78815 -82.32124 31957 ft 527 kts 145°
2026-04-22 17:49 26.76057 -82.29478 31138 ft 527 kts 145°
2026-04-22 17:50 26.73273 -82.26811 30261 ft 527 kts 144°
2026-04-22 17:50 26.70476 -82.24134 29387 ft 527 kts 144°
2026-04-22 17:50 26.67716 -82.21493 28562 ft 526 kts 144°
2026-04-22 17:50 26.64936 -82.18835 27882 ft 520 kts 144°
2026-04-22 17:51 26.62217 -82.16233 27266 ft 513 kts 144°
2026-04-22 17:51 26.59530 -82.13664 26717 ft 506 kts 143°
2026-04-22 17:51 26.56874 -82.11124 26202 ft 497 kts 143°
2026-04-22 17:51 26.54289 -82.08658 25751 ft 489 kts 143°
2026-04-22 17:52 26.51729 -82.06192 25312 ft 483 kts 142°
2026-04-22 17:52 26.49226 -82.03687 24914 ft 475 kts 141°
2026-04-22 17:52 26.46802 -82.01229 24511 ft 473 kts 141°
2026-04-22 17:52 26.44393 -81.98785 24076 ft 470 kts 141°
2026-04-22 17:53 26.41963 -81.96326 23619 ft 466 kts 141°
2026-04-22 17:53 26.39590 -81.93932 23159 ft 462 kts 141°
2026-04-22 17:53 26.37217 -81.91542 22693 ft 459 kts 141°
2026-04-22 17:53 26.34852 -81.89164 22230 ft 455 kts 141°
2026-04-22 17:54 26.32525 -81.86826 21777 ft 451 kts 141°
2026-04-22 17:54 26.30183 -81.84474 21378 ft 445 kts 141°
2026-04-22 17:54 26.27936 -81.82218 21228 ft 430 kts 141°
2026-04-22 17:54 26.25736 -81.79999 21113 ft 417 kts 139°
2026-04-22 17:55 26.24435 -81.78464 21034 ft 411 kts 132°
2026-04-22 17:55 26.22328 -81.75000 20701 ft 405 kts 119°
2026-04-22 17:55 26.21075 -81.72195 20302 ft 404 kts 116°
2026-04-22 17:55 26.19875 -81.69355 19854 ft 403 kts 116°
2026-04-22 17:56 26.18701 -81.66575 19421 ft 402 kts 116°
2026-04-22 17:56 26.17503 -81.63767 18984 ft 401 kts 116°
2026-04-22 17:56 26.16305 -81.60984 18552 ft 399 kts 116°
2026-04-22 17:56 26.15109 -81.58225 18117 ft 397 kts 117°
2026-04-22 17:57 26.13909 -81.55466 17686 ft 393 kts 117°
2026-04-22 17:57 26.12717 -81.52727 17266 ft 390 kts 117°
2026-04-22 17:57 26.11542 -81.50032 16855 ft 387 kts 116°
2026-04-22 17:57 26.10382 -81.47369 16450 ft 383 kts 116°
2026-04-22 17:58 26.09215 -81.44701 16043 ft 380 kts 116°
2026-04-22 17:58 26.08078 -81.42095 15642 ft 376 kts 116°
2026-04-22 17:58 26.06940 -81.39488 15237 ft 373 kts 116°
2026-04-22 17:58 26.05817 -81.36911 14847 ft 369 kts 116°
2026-04-22 17:59 26.04694 -81.34332 14456 ft 365 kts 116°
2026-04-22 17:59 26.03596 -81.31809 14074 ft 361 kts 116°
2026-04-22 17:59 26.02510 -81.29317 13697 ft 357 kts 116°
2026-04-22 17:59 26.01435 -81.26852 13323 ft 354 kts 116°
2026-04-22 18:00 26.00725 -81.25226 13075 ft 351 kts 116°
2026-04-22 18:00 25.99315 -81.21993 12582 ft 346 kts 116°
2026-04-22 18:00 25.98274 -81.19614 12219 ft 342 kts 116°
2026-04-22 18:00 25.97242 -81.17257 11858 ft 339 kts 116°
2026-04-22 18:01 25.96209 -81.14896 11496 ft 336 kts 116°
2026-04-22 18:01 25.95203 -81.12601 11142 ft 332 kts 116°
2026-04-22 18:01 25.94188 -81.10287 10787 ft 329 kts 116°
2026-04-22 18:01 25.93194 -81.08020 10437 ft 326 kts 116°
2026-04-22 18:02 25.92206 -81.05768 10203 ft 318 kts 116°
2026-04-22 18:02 25.91272 -81.03612 10121 ft 305 kts 114°
2026-04-22 18:02 25.90441 -81.01482 10052 ft 292 kts 112°
2026-04-22 18:02 25.89667 -80.99457 9945 ft 283 kts 112°
2026-04-22 18:03 25.88903 -80.97454 9635 ft 283 kts 112°
2026-04-22 18:03 25.88140 -80.95454 9318 ft 281 kts 112°
2026-04-22 18:03 25.87368 -80.93443 9013 ft 279 kts 112°
2026-04-22 18:03 25.86619 -80.91492 8861 ft 275 kts 112°
2026-04-22 18:04 25.85871 -80.89546 8579 ft 274 kts 112°
2026-04-22 18:04 25.85122 -80.87598 8290 ft 273 kts 112°
2026-04-22 18:04 25.84386 -80.85664 8015 ft 270 kts 112°
2026-04-22 18:04 25.83650 -80.83746 7720 ft 269 kts 113°
2026-04-22 18:05 25.82908 -80.81838 7332 ft 271 kts 111°
2026-04-22 18:05 25.82158 -80.79921 6961 ft 271 kts 111°
2026-04-22 18:05 25.81426 -80.77998 6640 ft 270 kts 111°
2026-04-22 18:05 25.80703 -80.76101 6330 ft 267 kts 111°
2026-04-22 18:06 25.79981 -80.74235 6036 ft 264 kts 111°
2026-04-22 18:06 25.79262 -80.72353 5745 ft 261 kts 112°
2026-04-22 18:06 25.78560 -80.70528 5470 ft 258 kts 112°
2026-04-22 18:06 25.77846 -80.68695 5201 ft 255 kts 111°
2026-04-22 18:07 25.77420 -80.67487 5018 ft 253 kts 105°
2026-04-22 18:07 25.77136 -80.64947 4669 ft 248 kts 88°
2026-04-22 18:07 25.77237 -80.63067 4433 ft 244 kts 85°
2026-04-22 18:07 25.77371 -80.61188 4189 ft 240 kts 84°
2026-04-22 18:08 25.77493 -80.59373 4014 ft 233 kts 85°
2026-04-22 18:08 25.77587 -80.57630 3998 ft 219 kts 86°
2026-04-22 18:08 25.77659 -80.56003 4011 ft 205 kts 87°
2026-04-22 18:08 25.77718 -80.54479 3934 ft 191 kts 87°
2026-04-22 18:09 25.77769 -80.53034 3726 ft 185 kts 87°
2026-04-22 18:09 25.77818 -80.51633 3479 ft 180 kts 87°
2026-04-22 18:09 25.77866 -80.50275 3249 ft 173 kts 87°
2026-04-22 18:09 25.77913 -80.48963 3043 ft 167 kts 87°
2026-04-22 18:10 25.77962 -80.47695 2854 ft 160 kts 86°
2026-04-22 18:10 25.78008 -80.46497 2674 ft 154 kts 87°
2026-04-22 18:10 25.78056 -80.45296 2510 ft 156 kts 88°
2026-04-22 18:10 25.78101 -80.44096 2314 ft 155 kts 88°
2026-04-22 18:11 25.78146 -80.42899 2105 ft 154 kts 87°
2026-04-22 18:11 25.78193 -80.41721 1901 ft 152 kts 87°
2026-04-22 18:11 25.78242 -80.40551 1689 ft 154 kts 87°
2026-04-22 18:11 25.78290 -80.39365 1485 ft 153 kts 87°
2026-04-22 18:12 25.78334 -80.38232 1269 ft 141 kts 86°
2026-04-22 18:12 25.78377 -80.37190 1073 ft 130 kts 86°
2026-04-22 18:12 25.78405 -80.36523 962 ft 128 kts 86°
2026-04-22 18:12 25.78459 -80.35209 760 ft 128 kts 87°
2026-04-22 18:13 25.78497 -80.34217 589 ft 129 kts 86°
2026-04-22 18:13 25.78540 -80.33212 424 ft 132 kts 86°
2026-04-22 18:13 25.78578 -80.32191 237 ft 133 kts 87°
2026-04-22 18:13 25.78627 -80.31167 80 ft 133 kts 87°
2026-04-22 18:14 25.78663 -80.30200 26 ft 115 kts 86°
2026-04-22 18:14 25.78699 -80.29398 24 ft 106 kts 88°
2026-04-22 18:14 25.78719 -80.28822 24 ft 44 kts 87°
2026-04-22 18:14 25.78750 -80.28550 24 ft 28 kts 71°
2026-04-22 18:15 25.78836 -80.28411 24 ft 19 kts 49°
2026-04-22 18:15 25.78929 -80.28287 24 ft 21 kts 49°
2026-04-22 18:15 25.79011 -80.28172 23 ft 13 kts 53°
2026-04-22 18:15 25.79068 -80.28088 23 ft 14 kts 43°
2026-04-22 18:16 25.79131 -80.28098 23 ft 7 kts 317°
2026-04-22 18:16 25.79147 -80.28114 23 ft 0 kts 320°